Showing default

COSMOS 2607, 67681

Orbit data source: Space-Track

COSMOS 2607, 67681 is a payload satellite owned by VVKO VKS (CIS) in SSO that was launched on Thu, 05 Feb 2026 UTC via a SOYUZ-2-1B launch vehicle from the Plesetsk Missile And Space Complex (PKMTR). Payload-class satellites include a variety of spacecraft equipped with specific instruments for various scientific and technological missions. These include communications satellites like Starlink; space stations such as the ISS; scientific satellites like the Hubble; Earth observation satellites from companies like Planet Labs, Umbra, and HawkEye 360; GPS; miniature CubeSats for education and research; and military/defense satellites.

Loading next visibility...
Identifier
67681, 2026-023H
Orbit
SSO
Country
Flag of CISCIS
Related business
Manufacturer
Unknown (RU)
Mission
Operational Defense Imaging
Bus & Motor
UNK, Unknown motor
Mass
~500 kg wet, ~500 kg dry
Launch date (UTC)
2026-02-05 (4 months ago)
Launch vehicle
SOYUZ-2-1B
Launch site
Plesetsk Missile And Space Complex (PKMTR)
Object type
Payload
Rocket body
Debris
Shape & HBR
Cyl + 2 Pan, 1.1 m
Radar Cross Section
3.727 m², Medium (>0.1 m² and < 1m²)

Expand to show TLE details & history
Last TLE update: 1 day ago

TLE from 1 day ago
0 COSMOS 2607
1 67681U 26023H   26170.73963693  .00008195  00000-0  32657-3 0  9992
2 67681  96.6296 234.5162 0023360 112.7714 247.5998 15.25171784 20386
Epoch: 2026-06-19T17:45Z
TLE epoch observation values (Epoch: 2026-06-19T17:45:04.630Z)
Latitude
0.00001°
Longitude
60.28262°
Altitude
499.536 km
Speed
7.611 km/s
True Right ascension
15h 38m 03s
True Declination
0° 00' 00"
Sunlit
Object was in full shadow at epoch
Visualization orbit readout
Latitude
Unknown
Longitude
Unknown
Altitude
Unknown
Speed
Unknown
Apparent Right ascension
Unknown
Apparent Declination
Unknown
Sunlit
N/A
Visualization observer readout
Local Sidereal Time
07:21:51
Azimuth
Unknown
Elevation
Unknown
Doppler factor
Unknown
Orbital elements
Apogee altitude
503.234 km
Perigee altitude
471.16 km
Semi-major axis
6,865.334 km
Eccentricity
0.00234
Inclination
96.6296°
RAAN
234.5162°
Arg. of periapsis
112.7714°
True anomaly
247.35259°
Mean anomaly
247.5998°
Eccentric anomaly
247.47617°
Mean motion
3.81549 °/min
Orbital period
94.35 mins
BSTAR
0.00032657
Loading maneuver chart data...
Computing Atmospheric mass density...
Loading historical data...
Loading historical data...
Loading historical data...
Loading historical data...
Loading historical data...
Loading historical data...
Loading historical data...

Documentation

Showing up to 5 results
|